TAM3446 SBGR-SBCG

Flight info

Callsign TAM3446
Flight time 1h 25m
Altitude 34000
Route EGEVA UM415 FIGOS
Aircraft A321/M-SDE3FGHIRWY/LB1

Departure

Time 2026-04-25 21:15
Airport São Paulo/Guarulhos–Governor André Franco Montoro International Airport (SBGR)

Arrival

Time 2026-04-25 22:40
Airport Campo Grande Airport (SBCG)
Time Latitude Longitude Altitude Speed Heading
2026-04-25 20:31 -23.42860 -46.48229 2469 ft 0 kts 288°
2026-04-25 21:03 -23.42864 -46.48216 2468 ft 4 kts 284°
2026-04-25 21:03 -23.42867 -46.48188 2468 ft 4 kts 256°
2026-04-25 21:04 -23.42857 -46.48170 2468 ft 3 kts 181°
2026-04-25 21:04 -23.42853 -46.48170 2471 ft 0 kts 174°
2026-04-25 21:07 -23.42855 -46.48170 2468 ft 1 kts 174°
2026-04-25 21:07 -23.42865 -46.48168 2468 ft 3 kts 174°
2026-04-25 21:07 -23.42900 -46.48163 2471 ft 7 kts 166°
2026-04-25 21:07 -23.42958 -46.48139 2470 ft 11 kts 166°
2026-04-25 21:08 -23.43046 -46.48129 2468 ft 14 kts 175°
2026-04-25 21:08 -23.43097 -46.48058 2474 ft 16 kts 79°
2026-04-25 21:08 -23.43062 -46.47932 2468 ft 19 kts 73°
2026-04-25 21:08 -23.43021 -46.47782 2468 ft 22 kts 73°
2026-04-25 21:09 -23.42920 -46.47412 2468 ft 28 kts 74°
2026-04-25 21:09 -23.42862 -46.47197 2470 ft 31 kts 73°
2026-04-25 21:09 -23.42800 -46.46964 2471 ft 33 kts 74°
2026-04-25 21:10 -23.42737 -46.46729 2472 ft 32 kts 73°
2026-04-25 21:10 -23.42676 -46.46500 2472 ft 31 kts 73°
2026-04-25 21:10 -23.42614 -46.46278 2470 ft 30 kts 73°
2026-04-25 21:10 -23.42555 -46.46060 2468 ft 30 kts 73°
2026-04-25 21:11 -23.42496 -46.45846 2468 ft 29 kts 73°
2026-04-25 21:11 -23.42440 -46.45637 2470 ft 28 kts 73°
2026-04-25 21:11 -23.42385 -46.45435 2470 ft 27 kts 73°
2026-04-25 21:11 -23.42332 -46.45248 2472 ft 19 kts 73°
2026-04-25 21:12 -23.42295 -46.45110 2468 ft 19 kts 75°
2026-04-25 21:12 -23.42274 -46.44986 2468 ft 16 kts 99°
2026-04-25 21:12 -23.42353 -46.44914 2470 ft 16 kts 162°
2026-04-25 21:12 -23.42387 -46.44902 2469 ft 16 kts 162°
2026-04-25 21:13 -23.42498 -46.44904 2472 ft 9 kts 248°
2026-04-25 21:13 -23.42504 -46.44923 2471 ft 0 kts 251°
2026-04-25 21:13 -23.42505 -46.44925 2470 ft 0 kts 251°
2026-04-25 21:13 -23.42505 -46.44926 2470 ft 0 kts 251°
2026-04-25 21:14 -23.42561 -46.45127 2470 ft 62 kts 253°
2026-04-25 21:14 -23.42745 -46.45807 2472 ft 123 kts 253°
2026-04-25 21:14 -23.43037 -46.46887 2472 ft 172 kts 253°
2026-04-25 21:14 -23.43409 -46.48242 2760 ft 189 kts 253°
2026-04-25 21:15 -23.43817 -46.49597 3514 ft 188 kts 252°
2026-04-25 21:15 -23.44221 -46.50951 4135 ft 186 kts 254°
2026-04-25 21:15 -23.44591 -46.52322 4448 ft 195 kts 255°
2026-04-25 21:15 -23.44975 -46.53807 4592 ft 212 kts 255°
2026-04-25 21:16 -23.45391 -46.55409 4711 ft 228 kts 255°
2026-04-25 21:16 -23.45844 -46.57138 4822 ft 249 kts 255°
2026-04-25 21:16 -23.46337 -46.59022 5028 ft 266 kts 255°
2026-04-25 21:16 -23.46841 -46.60984 5548 ft 271 kts 255°
2026-04-25 21:17 -23.47346 -46.62964 6145 ft 273 kts 255°
2026-04-25 21:17 -23.47852 -46.64959 6768 ft 274 kts 255°
2026-04-25 21:17 -23.48362 -46.66967 7374 ft 276 kts 255°
2026-04-25 21:17 -23.48879 -46.68988 7878 ft 279 kts 255°
2026-04-25 21:18 -23.49400 -46.71018 7985 ft 277 kts 255°
2026-04-25 21:18 -23.49919 -46.73035 8003 ft 276 kts 255°
2026-04-25 21:18 -23.50435 -46.75047 8005 ft 276 kts 255°
2026-04-25 21:18 -23.50953 -46.77069 8172 ft 278 kts 255°
2026-04-25 21:19 -23.51474 -46.79105 8770 ft 279 kts 255°
2026-04-25 21:19 -23.51998 -46.81145 9335 ft 281 kts 255°
2026-04-25 21:19 -23.52524 -46.83202 9860 ft 283 kts 255°
2026-04-25 21:19 -23.53055 -46.85283 10265 ft 291 kts 254°
2026-04-25 21:20 -23.53613 -46.87467 10391 ft 308 kts 254°
2026-04-25 21:20 -23.54009 -46.89008 10476 ft 318 kts 254°
2026-04-25 21:20 -23.54822 -46.92181 10663 ft 337 kts 254°
2026-04-25 21:20 -23.55454 -46.94668 11039 ft 343 kts 254°
2026-04-25 21:21 -23.56095 -46.97190 11507 ft 346 kts 253°
2026-04-25 21:21 -23.56742 -46.99727 11985 ft 348 kts 253°
2026-04-25 21:21 -23.57389 -47.02276 12469 ft 351 kts 253°
2026-04-25 21:21 -23.58042 -47.04847 12951 ft 353 kts 253°
2026-04-25 21:22 -23.58698 -47.07432 13425 ft 354 kts 253°
2026-04-25 21:22 -23.59355 -47.10028 13904 ft 356 kts 254°
2026-04-25 21:22 -23.60012 -47.12639 14383 ft 358 kts 256°
2026-04-25 21:22 -23.60365 -47.15331 14842 ft 361 kts 268°
2026-04-25 21:23 -23.60167 -47.18064 15311 ft 364 kts 281°
2026-04-25 21:23 -23.59395 -47.20694 15764 ft 365 kts 288°
2026-04-25 21:23 -23.58546 -47.23309 16216 ft 367 kts 288°
2026-04-25 21:23 -23.57691 -47.25932 16649 ft 368 kts 288°
2026-04-25 21:24 -23.56829 -47.28555 17092 ft 369 kts 288°
2026-04-25 21:24 -23.55960 -47.31189 17522 ft 370 kts 288°
2026-04-25 21:24 -23.55088 -47.33830 17965 ft 370 kts 288°
2026-04-25 21:24 -23.54213 -47.36474 18395 ft 372 kts 288°
2026-04-25 21:25 -23.53331 -47.39128 18783 ft 373 kts 288°
2026-04-25 21:25 -23.52445 -47.41788 19147 ft 375 kts 288°
2026-04-25 21:25 -23.51552 -47.44469 19490 ft 377 kts 288°
2026-04-25 21:25 -23.50659 -47.47159 19825 ft 379 kts 288°
2026-04-25 21:26 -23.49761 -47.49863 20136 ft 381 kts 288°
2026-04-25 21:26 -23.48857 -47.52584 20468 ft 383 kts 288°
2026-04-25 21:26 -23.47948 -47.55314 20774 ft 384 kts 288°
2026-04-25 21:26 -23.47036 -47.58054 21081 ft 386 kts 288°
2026-04-25 21:27 -23.46117 -47.60809 21370 ft 388 kts 288°
2026-04-25 21:27 -23.45195 -47.63577 21646 ft 389 kts 288°
2026-04-25 21:27 -23.44272 -47.66351 21935 ft 391 kts 288°
2026-04-25 21:27 -23.43342 -47.69142 22216 ft 392 kts 288°
2026-04-25 21:28 -23.42410 -47.71937 22489 ft 394 kts 288°
2026-04-25 21:28 -23.41474 -47.74744 22751 ft 395 kts 288°
2026-04-25 21:28 -23.40531 -47.77563 23023 ft 397 kts 288°
2026-04-25 21:28 -23.39582 -47.80391 23258 ft 398 kts 288°
2026-04-25 21:29 -23.38626 -47.83227 23496 ft 400 kts 288°
2026-04-25 21:29 -23.37666 -47.86077 23739 ft 402 kts 288°
2026-04-25 21:29 -23.36705 -47.88942 23980 ft 403 kts 287°
2026-04-25 21:29 -23.35744 -47.91809 24217 ft 404 kts 288°
2026-04-25 21:30 -23.34780 -47.94691 24456 ft 406 kts 287°
2026-04-25 21:30 -23.33811 -47.97580 24697 ft 407 kts 287°
2026-04-25 21:30 -23.32839 -48.00476 24917 ft 408 kts 287°
2026-04-25 21:30 -23.32192 -48.02397 25068 ft 409 kts 287°
2026-04-25 21:31 -23.30879 -48.06291 25353 ft 410 kts 288°
2026-04-25 21:31 -23.29893 -48.09207 25591 ft 411 kts 288°
2026-04-25 21:31 -23.28906 -48.12129 25820 ft 412 kts 288°
2026-04-25 21:31 -23.27919 -48.15059 26025 ft 413 kts 287°
2026-04-25 21:32 -23.26930 -48.18003 26235 ft 415 kts 288°
2026-04-25 21:32 -23.25935 -48.20949 26457 ft 416 kts 288°
2026-04-25 21:32 -23.24934 -48.23904 26677 ft 417 kts 288°
2026-04-25 21:32 -23.23932 -48.26866 26911 ft 418 kts 288°
2026-04-25 21:33 -23.22926 -48.29833 27119 ft 419 kts 288°
2026-04-25 21:33 -23.21918 -48.32807 27317 ft 420 kts 288°
2026-04-25 21:33 -23.20905 -48.35789 27519 ft 421 kts 288°
2026-04-25 21:33 -23.19885 -48.38783 27724 ft 422 kts 288°
2026-04-25 21:34 -23.18868 -48.41776 27953 ft 423 kts 288°
2026-04-25 21:34 -23.17846 -48.44785 28153 ft 425 kts 288°
2026-04-25 21:34 -23.16835 -48.47761 28367 ft 426 kts 288°
2026-04-25 21:34 -23.15791 -48.50821 28574 ft 427 kts 288°
2026-04-25 21:35 -23.14753 -48.53849 28784 ft 428 kts 288°
2026-04-25 21:35 -23.13717 -48.56878 28968 ft 428 kts 288°
2026-04-25 21:35 -23.12726 -48.59889 29124 ft 429 kts 287°
2026-04-25 21:35 -23.11756 -48.62959 29306 ft 430 kts 286°
2026-04-25 21:36 -23.10803 -48.66036 29492 ft 431 kts 286°
2026-04-25 21:36 -23.09849 -48.69124 29670 ft 431 kts 286°
2026-04-25 21:36 -23.08889 -48.72207 29830 ft 432 kts 287°
2026-04-25 21:36 -23.07919 -48.75296 29998 ft 432 kts 287°
2026-04-25 21:37 -23.06939 -48.78392 30138 ft 434 kts 287°
2026-04-25 21:37 -23.06275 -48.80483 30225 ft 434 kts 287°
2026-04-25 21:37 -23.04960 -48.84589 30425 ft 435 kts 287°
2026-04-25 21:37 -23.03967 -48.87679 30616 ft 434 kts 287°
2026-04-25 21:38 -23.02976 -48.90774 30816 ft 433 kts 287°
2026-04-25 21:38 -23.01990 -48.93859 31007 ft 433 kts 287°
2026-04-25 21:38 -23.01005 -48.96947 31201 ft 432 kts 287°
2026-04-25 21:38 -23.00024 -49.00029 31370 ft 432 kts 287°
2026-04-25 21:39 -22.99052 -49.03085 31549 ft 432 kts 287°
2026-04-25 21:39 -22.98071 -49.06166 31735 ft 431 kts 287°
2026-04-25 21:39 -22.97091 -49.09235 31906 ft 431 kts 287°
2026-04-25 21:39 -22.96105 -49.12306 32092 ft 431 kts 287°
2026-04-25 21:40 -22.95118 -49.15369 32277 ft 430 kts 287°
2026-04-25 21:40 -22.94105 -49.18420 32451 ft 430 kts 289°
2026-04-25 21:40 -22.93032 -49.21450 32621 ft 430 kts 289°
2026-04-25 21:40 -22.91913 -49.24457 32797 ft 430 kts 290°
2026-04-25 21:41 -22.90772 -49.27455 32967 ft 429 kts 290°
2026-04-25 21:41 -22.89638 -49.30446 33141 ft 429 kts 289°
2026-04-25 21:41 -22.88583 -49.33467 33314 ft 428 kts 288°
2026-04-25 21:41 -22.87618 -49.36519 33490 ft 427 kts 286°
2026-04-25 21:42 -22.86708 -49.39575 33657 ft 426 kts 286°
2026-04-25 21:42 -22.85815 -49.42640 33810 ft 426 kts 285°
2026-04-25 21:42 -22.84918 -49.45697 33970 ft 426 kts 286°
2026-04-25 21:42 -22.83998 -49.48745 34021 ft 424 kts 287°
2026-04-25 21:43 -22.82025 -49.54744 34018 ft 422 kts 288°
2026-04-25 21:43 -22.79968 -49.60702 34012 ft 422 kts 289°
2026-04-25 21:44 -22.77933 -49.66664 34015 ft 422 kts 288°
2026-04-25 21:45 -22.74922 -49.75625 34016 ft 422 kts 288°
2026-04-25 21:45 -22.72913 -49.81603 34024 ft 423 kts 288°
2026-04-25 21:46 -22.70890 -49.87586 34019 ft 423 kts 288°
2026-04-25 21:46 -22.68863 -49.93567 34030 ft 423 kts 288°
2026-04-25 21:47 -22.66837 -49.99553 34027 ft 424 kts 288°
2026-04-25 21:47 -22.64807 -50.05544 34025 ft 424 kts 289°
2026-04-25 21:48 -22.62776 -50.11537 34028 ft 424 kts 289°
2026-04-25 21:48 -22.60752 -50.17537 34030 ft 425 kts 289°
2026-04-25 21:49 -22.58719 -50.23535 34031 ft 425 kts 289°
2026-04-25 21:49 -22.56674 -50.29526 34026 ft 424 kts 289°
2026-04-25 21:50 -22.54614 -50.35498 34026 ft 424 kts 289°
2026-04-25 21:50 -22.52551 -50.41469 34022 ft 424 kts 289°
2026-04-25 21:51 -22.50486 -50.47438 34014 ft 424 kts 289°
2026-04-25 21:51 -22.48430 -50.53380 34022 ft 425 kts 289°
2026-04-25 21:52 -22.46349 -50.59401 34023 ft 425 kts 289°
2026-04-25 21:52 -22.44291 -50.65337 34019 ft 424 kts 289°
2026-04-25 21:53 -22.42197 -50.71346 34011 ft 424 kts 289°
2026-04-25 21:53 -22.40143 -50.77271 34011 ft 424 kts 289°
2026-04-25 21:54 -22.38074 -50.83232 34007 ft 423 kts 289°
2026-04-25 21:54 -22.35997 -50.89186 34008 ft 423 kts 289°
2026-04-25 21:55 -22.34259 -50.94174 34000 ft 423 kts 289°
2026-04-25 21:55 -22.32181 -51.00124 34000 ft 423 kts 289°
2026-04-25 21:56 -22.30100 -51.06074 33998 ft 423 kts 289°
2026-04-25 21:56 -22.28016 -51.12021 33996 ft 423 kts 289°
2026-04-25 21:57 -22.25932 -51.17961 33995 ft 423 kts 289°
2026-04-25 21:57 -22.23861 -51.23856 33992 ft 423 kts 289°
2026-04-25 21:58 -22.21774 -51.29797 33989 ft 423 kts 289°
2026-04-25 21:58 -22.19686 -51.35743 33985 ft 423 kts 289°
2026-04-25 21:59 -22.17594 -51.41675 33983 ft 424 kts 289°
2026-04-25 21:59 -22.15518 -51.47622 33982 ft 424 kts 289°
2026-04-25 22:00 -22.12462 -51.56566 33977 ft 424 kts 289°
2026-04-25 22:00 -22.10426 -51.62523 33977 ft 423 kts 289°
2026-04-25 22:01 -22.08371 -51.68479 33977 ft 424 kts 289°
2026-04-25 22:01 -22.06667 -51.73427 33975 ft 424 kts 289°
2026-04-25 22:02 -22.04272 -51.80392 33978 ft 424 kts 289°
2026-04-25 22:02 -22.02209 -51.86349 33980 ft 424 kts 289°
2026-04-25 22:03 -22.00147 -51.92308 33981 ft 424 kts 289°
2026-04-25 22:03 -21.98086 -51.98268 33982 ft 424 kts 289°
2026-04-25 22:04 -21.96018 -52.04230 33987 ft 425 kts 289°
2026-04-25 22:04 -21.93949 -52.10192 33989 ft 425 kts 289°
2026-04-25 22:05 -21.91883 -52.16152 33987 ft 425 kts 289°
2026-04-25 22:05 -21.89821 -52.22068 33989 ft 425 kts 290°
2026-04-25 22:06 -21.87741 -52.28023 33988 ft 425 kts 290°
2026-04-25 22:06 -21.85659 -52.33989 33991 ft 426 kts 290°
2026-04-25 22:07 -21.83907 -52.38985 33991 ft 426 kts 290°
2026-04-25 22:07 -21.81477 -52.45916 33990 ft 426 kts 290°
2026-04-25 22:08 -21.79382 -52.51884 33990 ft 426 kts 290°
2026-04-25 22:08 -21.77282 -52.57853 33990 ft 427 kts 290°
2026-04-25 22:09 -21.75176 -52.63829 33992 ft 427 kts 290°
2026-04-25 22:09 -21.73068 -52.69801 34000 ft 428 kts 290°
2026-04-25 22:10 -21.70952 -52.75785 34003 ft 428 kts 290°
2026-04-25 22:10 -21.68840 -52.81768 34001 ft 428 kts 290°
2026-04-25 22:11 -21.66726 -52.87754 34003 ft 428 kts 290°
2026-04-25 22:11 -21.64610 -52.93743 34005 ft 429 kts 290°
2026-04-25 22:12 -21.62484 -52.99731 34004 ft 429 kts 290°
2026-04-25 22:12 -21.60719 -53.04708 34003 ft 429 kts 290°
2026-04-25 22:13 -21.58245 -53.11673 34004 ft 429 kts 291°
2026-04-25 22:13 -21.56097 -53.17706 34007 ft 429 kts 290°
2026-04-25 22:14 -21.53976 -53.23659 34006 ft 430 kts 291°
2026-04-25 22:14 -21.51832 -53.29652 34006 ft 430 kts 291°
2026-04-25 22:15 -21.49691 -53.35643 34008 ft 430 kts 291°
2026-04-25 22:16 -21.46471 -53.44623 34015 ft 430 kts 291°
2026-04-25 22:16 -21.43661 -53.50260 34012 ft 430 kts 304°
2026-04-25 22:17 -21.40205 -53.55496 34007 ft 430 kts 304°
2026-04-25 22:17 -21.38475 -53.58111 33627 ft 431 kts 304°
2026-04-25 22:17 -21.36736 -53.60740 33009 ft 430 kts 304°
2026-04-25 22:17 -21.35020 -53.63342 32550 ft 425 kts 304°
2026-04-25 22:18 -21.33322 -53.65920 32069 ft 421 kts 304°
2026-04-25 22:18 -21.31643 -53.68468 31595 ft 416 kts 304°
2026-04-25 22:18 -21.29979 -53.70987 31130 ft 411 kts 304°
2026-04-25 22:18 -21.28336 -53.73473 30673 ft 406 kts 304°
2026-04-25 22:19 -21.26711 -53.75932 30218 ft 401 kts 304°
2026-04-25 22:19 -21.25109 -53.78353 29773 ft 396 kts 304°
2026-04-25 22:19 -21.23523 -53.80746 29349 ft 391 kts 304°
2026-04-25 22:19 -21.21955 -53.83106 28915 ft 386 kts 304°
2026-04-25 22:20 -21.20406 -53.85440 28493 ft 381 kts 304°
2026-04-25 22:20 -21.18878 -53.87741 28098 ft 377 kts 304°
2026-04-25 22:20 -21.17367 -53.90016 27707 ft 372 kts 304°
2026-04-25 22:20 -21.15874 -53.92263 27326 ft 367 kts 304°
2026-04-25 22:21 -21.14404 -53.94479 26943 ft 363 kts 304°
2026-04-25 22:21 -21.12954 -53.96671 26578 ft 358 kts 304°
2026-04-25 22:21 -21.11525 -53.98827 26220 ft 352 kts 304°
2026-04-25 22:21 -21.10115 -54.00951 25859 ft 348 kts 304°
2026-04-25 22:22 -21.08712 -54.03060 25492 ft 347 kts 304°
2026-04-25 22:22 -21.07316 -54.05163 25129 ft 346 kts 304°
2026-04-25 22:22 -21.05921 -54.07262 24749 ft 345 kts 304°
2026-04-25 22:22 -21.04533 -54.09348 24367 ft 344 kts 303°
2026-04-25 22:23 -21.03147 -54.11429 23992 ft 343 kts 303°
2026-04-25 22:23 -21.01765 -54.13506 23601 ft 342 kts 303°
2026-04-25 22:23 -21.00405 -54.15548 23217 ft 340 kts 304°
2026-04-25 22:23 -20.99037 -54.17601 22826 ft 338 kts 304°
2026-04-25 22:24 -20.97679 -54.19641 22408 ft 336 kts 304°
2026-04-25 22:24 -20.96328 -54.21670 21999 ft 334 kts 304°
2026-04-25 22:24 -20.94983 -54.23683 21592 ft 331 kts 304°
2026-04-25 22:24 -20.93651 -54.25675 21186 ft 328 kts 304°
2026-04-25 22:25 -20.92326 -54.27654 20778 ft 326 kts 304°
2026-04-25 22:25 -20.91014 -54.29617 20380 ft 323 kts 304°
2026-04-25 22:25 -20.89717 -54.31572 19988 ft 321 kts 303°
2026-04-25 22:25 -20.88513 -54.33566 19594 ft 318 kts 300°
2026-04-25 22:26 -20.87381 -54.35590 19203 ft 316 kts 299°
2026-04-25 22:26 -20.86288 -54.37613 18815 ft 313 kts 299°
2026-04-25 22:26 -20.85208 -54.39623 18431 ft 311 kts 299°
2026-04-25 22:26 -20.84127 -54.41618 18048 ft 309 kts 299°
2026-04-25 22:27 -20.83045 -54.43592 17667 ft 307 kts 300°
2026-04-25 22:27 -20.81961 -54.45551 17283 ft 305 kts 300°
2026-04-25 22:27 -20.80881 -54.47493 16910 ft 303 kts 300°
2026-04-25 22:27 -20.79803 -54.49422 16538 ft 301 kts 300°
2026-04-25 22:28 -20.78729 -54.51341 16158 ft 300 kts 300°
2026-04-25 22:28 -20.77662 -54.53252 15793 ft 299 kts 300°
2026-04-25 22:28 -20.76598 -54.55154 15426 ft 298 kts 300°
2026-04-25 22:28 -20.75536 -54.57050 15009 ft 296 kts 300°
2026-04-25 22:29 -20.74481 -54.58935 14603 ft 295 kts 300°
2026-04-25 22:29 -20.73430 -54.60817 14205 ft 294 kts 300°
2026-04-25 22:29 -20.72383 -54.62687 13807 ft 293 kts 300°
2026-04-25 22:30 -20.70301 -54.66395 13028 ft 290 kts 303°
2026-04-25 22:30 -20.68956 -54.67973 12639 ft 288 kts 323°
2026-04-25 22:30 -20.67167 -54.68913 12248 ft 288 kts 345°
2026-04-25 22:30 -20.65860 -54.69117 11996 ft 288 kts 359°
2026-04-25 22:31 -20.63308 -54.68490 11488 ft 287 kts 27°
2026-04-25 22:31 -20.61696 -54.67207 11098 ft 284 kts 41°
2026-04-25 22:31 -20.60246 -54.65802 10720 ft 280 kts 41°
2026-04-25 22:31 -20.58803 -54.64410 10344 ft 279 kts 41°
2026-04-25 22:32 -20.57369 -54.63029 9972 ft 278 kts 41°
2026-04-25 22:32 -20.55940 -54.61653 9594 ft 276 kts 41°
2026-04-25 22:32 -20.54517 -54.60282 9229 ft 276 kts 40°
2026-04-25 22:32 -20.53086 -54.58899 8855 ft 277 kts 41°
2026-04-25 22:33 -20.51658 -54.57518 8482 ft 277 kts 41°
2026-04-25 22:33 -20.50228 -54.56147 8122 ft 277 kts 40°
2026-04-25 22:33 -20.48798 -54.54775 7755 ft 275 kts 40°
2026-04-25 22:33 -20.47395 -54.53429 7403 ft 274 kts 40°
2026-04-25 22:34 -20.45985 -54.52072 7052 ft 273 kts 40°
2026-04-25 22:34 -20.44580 -54.50721 6695 ft 271 kts 40°
2026-04-25 22:34 -20.43162 -54.49404 6341 ft 268 kts 33°
2026-04-25 22:34 -20.41481 -54.48633 5990 ft 261 kts
2026-04-25 22:35 -20.39704 -54.48701 5638 ft 255 kts 342°
2026-04-25 22:35 -20.38143 -54.49537 5262 ft 251 kts 318°
2026-04-25 22:35 -20.36952 -54.50856 4896 ft 244 kts 311°
2026-04-25 22:35 -20.35843 -54.52209 4527 ft 240 kts 305°
2026-04-25 22:36 -20.35220 -54.53817 4177 ft 234 kts 278°
2026-04-25 22:36 -20.35346 -54.55483 3930 ft 218 kts 251°
2026-04-25 22:36 -20.36036 -54.56788 3888 ft 188 kts 231°
2026-04-25 22:36 -20.36933 -54.57688 3792 ft 169 kts 222°
2026-04-25 22:37 -20.37787 -54.58509 3719 ft 162 kts 222°
2026-04-25 22:37 -20.38617 -54.59308 3639 ft 161 kts 222°
2026-04-25 22:37 -20.39446 -54.60101 3559 ft 159 kts 222°
2026-04-25 22:37 -20.40265 -54.60890 3471 ft 160 kts 223°
2026-04-25 22:38 -20.41085 -54.61685 3231 ft 158 kts 223°
2026-04-25 22:38 -20.41901 -54.62474 3000 ft 157 kts 223°
2026-04-25 22:38 -20.42709 -54.63255 2780 ft 157 kts 223°
2026-04-25 22:38 -20.43519 -54.64035 2569 ft 157 kts 222°
2026-04-25 22:39 -20.44326 -54.64813 2358 ft 156 kts 222°
2026-04-25 22:39 -20.45128 -54.65587 2149 ft 156 kts 223°
2026-04-25 22:39 -20.45930 -54.66358 1927 ft 155 kts 223°
2026-04-25 22:39 -20.46694 -54.67110 1839 ft 134 kts 220°
2026-04-25 22:40 -20.47170 -54.67555 1837 ft 70 kts 222°
2026-04-25 22:40 -20.47487 -54.67864 1839 ft 55 kts 222°
2026-04-25 22:40 -20.47615 -54.67988 1840 ft 28 kts 222°
2026-04-25 22:40 -20.47761 -54.68126 1840 ft 28 kts 221°
2026-04-25 22:41 -20.47824 -54.68253 1839 ft 11 kts 304°
2026-04-25 22:41 -20.47783 -54.68314 1839 ft 8 kts 308°
2026-04-25 22:41 -20.47740 -54.68358 1839 ft 9 kts 347°
2026-04-25 22:41 -20.47682 -54.68316 1839 ft 11 kts 44°
2026-04-25 22:42 -20.47639 -54.68274 1839 ft 13 kts 42°
2026-04-25 22:42 -20.47565 -54.68202 1839 ft 16 kts 42°
2026-04-25 22:42 -20.47478 -54.68119 1839 ft 18 kts 43°
2026-04-25 22:42 -20.47381 -54.68024 1839 ft 20 kts 42°
2026-04-25 22:43 -20.47272 -54.67920 1839 ft 22 kts 42°
2026-04-25 22:43 -20.47155 -54.67806 1839 ft 24 kts 42°
2026-04-25 22:43 -20.47029 -54.67683 1839 ft 25 kts 42°
2026-04-25 22:43 -20.46894 -54.67554 1839 ft 27 kts 43°
2026-04-25 22:44 -20.46753 -54.67416 1839 ft 28 kts 42°
2026-04-25 22:44 -20.46606 -54.67275 1839 ft 29 kts 42°
2026-04-25 22:44 -20.46451 -54.67127 1839 ft 30 kts 41°
2026-04-25 22:44 -20.46289 -54.67100 1839 ft 25 kts 352°
2026-04-25 22:45 -20.46113 -54.67120 1839 ft 26 kts 354°
2026-04-25 22:45 -20.45953 -54.67139 1839 ft 20 kts 353°
2026-04-25 22:45 -20.45867 -54.67100 1839 ft 14 kts 74°
2026-04-25 22:45 -20.45858 -54.67026 1839 ft 10 kts 85°
2026-04-25 22:46 -20.45853 -54.66981 1839 ft 0 kts 82°
2026-04-25 22:46 -20.45851 -54.66972 1839 ft 1 kts 69°
2026-04-25 22:46 -20.45842 -54.66967 1839 ft 2 kts 25°
2026-04-25 22:46 -20.45829 -54.66968 1839 ft 2 kts 356°
2026-04-25 22:47 -20.45808 -54.66970 1839 ft 4 kts 355°
2026-04-25 22:47 -20.45800 -54.66970 1839 ft 0 kts 355°